Regional Weather Roundup
Issued by NWS

Home | Current Version | Previous Version | Graphics & Text | Print | Product List | Glossary On
Versions: 1 2 3 4 5 6 7 8 9 10 11 12 13 14 15 16 17 18 19 20 21 22 23 24 25 26 27 28 29 30 31 32 33 34 35 36 37 38 39 40 41 42 43 44 45 46 47 48 49 50
155
ASUS45 KCYS 062210
RWRWY

WYOMING REGIONAL WEATHER ROUNDUP
NATIONAL WEATHER SERVICE CHEYENNE WY
300 PM MST SAT FEB 06 2016

NOTE:  "FAIR" INDICATES FEW OR NO CLOUDS BELOW 12,000 FEET
WITH NO SIGNIFICANT WEATHER AND/OR OBSTRUCTIONS TO VISIBILITY.

WYZ001-062300-
YELLOWSTONE NATIONAL PARK

CITY           SKY/WX    TMP DP  RH WIND       PRES   REMARKS
LK YELLOWSTONE   N/A     25  16  68 W8G21     30.22S WCI  16
W YELLOWSTONE  NOT AVBL

$$
WYZ002>013-054>058-071-098>099-062300-
NORTHERN WYOMING

CITY           SKY/WX    TMP DP  RH WIND       PRES   REMARKS
JACKSON        SUNNY     34  21  60 SW18G35   30.27R WCI  23
CODY           FAIR      46  12  25 W14G38    30.05R
GREYBULL       FAIR      40  21  46 S3        30.03F
WORLAND        FAIR      37  27  67 CALM      30.03R
SHERIDAN       FAIR      39  24  55 NW23G36   29.97R WCI  28
BUFFALO        FAIR      39  25  57 N14G23    29.99R WCI  31
GILLETTE       FAIR      40  26  57 W13       29.94R WCI  32
HULETT         FAIR      46  23  39 W9G17     29.91S
NEWCASTLE      FAIR      43  21  42 SW9       29.94F

$$
WYZ014>020-022>026-101>103-062300-
CENTRAL WYOMING

CITY           SKY/WX    TMP DP  RH WIND       PRES   REMARKS
BIG PINEY      FAIR      32  18  56 E8        30.28F WCI  25
PINEDALE       FAIR      32  21  64 NW9       30.28F WCI  24
DUBOIS         FAIR      36  18  48 NW31G38   30.14R WCI  22
LANDER         FAIR      39  22  50 CALM      30.06F
RIVERTON       FAIR      38  23  55 NE6       30.09R WCI  33
CASPER         FAIR      32  22  66 SW32G43   30.08R WCI  17
DOUGLAS        FAIR      43  22  43 W16G30      N/A

$$
WYZ021-027>030-104>119-062300-
SOUTHERN WYOMING

CITY           SKY/WX    TMP DP  RH WIND       PRES   REMARKS
EVANSTON       FAIR      31  18  58 SW22      30.36R WCI  18
KEMMERER       FAIR      30  19  64 W14       30.32F WCI  20
FORT BRIDGER   CLEAR     34  21  60 W26G32    30.37R WCI  21
ROCK SPRINGS   FAIR      33  18  53 W36G43    30.24F WCI  18
DIXON          FAIR      29  15  55 CALM      30.38S
RAWLINS        FAIR      28  17  63 W23G40    30.22F WCI  14
SARATOGA       FAIR      32  19  59 SW20G26   30.25F WCI  20
LARAMIE        FAIR      37  19  48 SW22G31   30.12F WCI  26
CHEYENNE       FAIR      41  22  46 SW7       30.08F
TORRINGTON     FAIR      43  23  45 W17G31    30.00F
PINE BLUFFS    FAIR      41  27  56 W24       30.05F

$$




USA.gov is the U.S. government's official web portal to all federal, state and local government web resources and services.